Blythe, CA

12:28 AM PDT on September 28, 2016 (GMT -0700)
Blythe

Weather History for KBLH - January, 2014

Change the Weather History Date:

Thursday, January 16, 2014

  Actual Average Record
Temperature  
Mean Temperature 63 °F -  
Max Temperature 80 °F 67 °F 82 °F (1976)
Min Temperature 46 °F 42 °F 33 °F (1987)
Degree Days  
Heating Degree Days 2    
Growing Degree Days 13 (Base 50)    
Moisture  
Dew Point 14 °F    
Average Humidity 17    
Maximum Humidity 33    
Minimum Humidity 6    
Precipitation  
Precipitation 0.00 in - - ()
Sea Level Pressure  
Sea Level Pressure 30.12 in    
Wind  
Wind Speed 6 mph (North)    
Max Wind Speed 16 mph    
Max Gust Speed 16 mph    
Visibility 10 miles    
Events      
Averages and records for this station are not official NWS values.
T = Trace of Precipitation, MM = Missing Value Source: NWS Daily Summary

Daily Weather History Graph

Daily Weather History Graph

Search for Another Location

Airport or City:

Trip Planner

Search our weather history database for the weather conditions in past years. The results will help you decide how hot, cold, wet, or windy it might be!

Date:

Astronomy

Jan. 16, 2014 Rise Set
Actual Time 6:42 AM PST 4:54 PM PST
Civil Twilight 6:16 AM PST 5:21 PM PST
Nautical Twilight 5:45 AM PST 5:52 PM PST
Astronomical Twilight 5:15 AM PST 6:22 PM PST
Moon 5:45 PM PST (1/16) 6:43 AM PST (1/16)
Length of Visible Light 11h 05m
Length of Day
10h 11m
Full, 100% of the Moon is Illuminated
Jan 16
Full
Jan 23
Last Quarter
Jan 30
New
Feb 6
First Quarter
Feb 14
Full

Hourly Weather History & Observations

Time (PST) Temp. Dew Point Humidity Pressure Visibility Wind Dir Wind Speed Gust Speed Precip Events Conditions
12:52 AM 51.1 °F 19.9 °F 29% 30.15 in 10.0 mi Calm Calm - N/A   Clear
1:52 AM 51.1 °F 19.0 °F 28% 30.14 in 10.0 mi WSW 3.5 mph - N/A   Clear
2:52 AM 51.1 °F 19.9 °F 29% 30.14 in 10.0 mi SW 8.1 mph - N/A   Clear
3:52 AM 51.1 °F 19.0 °F 28% 30.14 in 10.0 mi Variable 3.5 mph - N/A   Clear
4:52 AM 53.1 °F 18.0 °F 25% 30.13 in 10.0 mi NW 5.8 mph - N/A   Clear
5:52 AM 46.9 °F 19.0 °F 33% 30.15 in 10.0 mi SW 4.6 mph - N/A   Clear
6:52 AM 52.0 °F 18.0 °F 26% 30.16 in 10.0 mi Calm Calm - N/A   Clear
7:52 AM 55.9 °F 17.1 °F 22% 30.18 in 10.0 mi Variable 4.6 mph - N/A   Clear
8:52 AM 60.1 °F 21.9 °F 23% 30.20 in 10.0 mi East 4.6 mph - N/A   Clear
9:52 AM 66.9 °F 21.0 °F 17% 30.19 in 10.0 mi NNE 9.2 mph - N/A   Clear
10:52 AM 69.1 °F 24.1 °F 18% 30.17 in 10.0 mi ESE 4.6 mph - N/A   Clear
11:52 AM 75.9 °F 10.0 °F 8% 30.13 in 10.0 mi North 16.1 mph - N/A   Clear
12:52 PM 78.1 °F 9.0 °F 7% 30.10 in 10.0 mi NNE 10.4 mph 16.1 mph N/A   Clear
1:52 PM 77.0 °F 17.1 °F 10% 30.08 in 10.0 mi ENE 5.8 mph - N/A   Clear
2:52 PM 80.1 °F 8.1 °F 6% 30.07 in 10.0 mi North 12.7 mph - N/A   Clear
3:52 PM 79.0 °F 5.0 °F 6% 30.06 in 10.0 mi North 13.8 mph - N/A   Clear
4:52 PM 73.9 °F 7.0 °F 8% 30.07 in 10.0 mi North 12.7 mph - N/A   Clear
5:52 PM 66.9 °F 8.1 °F 10% 30.09 in 10.0 mi NNW 10.4 mph - N/A   Clear
6:52 PM 64.0 °F 8.1 °F 11% 30.09 in 10.0 mi North 9.2 mph - N/A   Clear
7:52 PM 63.0 °F 8.1 °F 11% 30.09 in 10.0 mi NNW 13.8 mph - N/A   Clear
8:52 PM 62.1 °F 8.1 °F 12% 30.10 in 10.0 mi NW 10.4 mph - N/A   Clear
9:52 PM 61.0 °F 8.1 °F 12% 30.11 in 10.0 mi NW 8.1 mph - N/A   Clear
10:52 PM 55.9 °F 10.0 °F 16% 30.11 in 10.0 mi Variable 3.5 mph - N/A   Clear
11:52 PM 55.9 °F 9.0 °F 15% 30.11 in 10.0 mi Variable 3.5 mph - N/A   Clear